Weather in Danilovo

Russia / Vladimir Oblast     55°24′30″N   41°24′27″E
temp.,
°C
wind,
m/s
gust,
m/s
humid.,
%
clouds,
%
prec.,
mm/h
press.,
hPa
HPBL,
m
7 march, sun
sun700:00−12wsw239772 0.0 101340
03:00−14sw369550 0.0 1012123
06:00−12ssw499237 0.0 1009249
09:00−8ssw7158168 0.0 1004794
12:00−6ssw81491100 0.8 10001096
15:00−4sw71392100 2.1 9961087
18:00−4sw61293100 1.0 993869
21:00−3ssw41096100 2.4 991685
8 march, mon
mon800:00−8wnw488691 1.1 991202
03:00−9sw389689 1.1 994226
06:00−8w4109198 0.6 996461
09:00−9wsw499295 0.6 997373
12:00−6sw4786100 0.1 997857
15:00−5wnw5773100 1.1 9991153
18:00−8nw3987100 0.2 1001338
21:00−11nw399584 0.3 1004199
9 march, tue
tue900:00−13nw399672 0.0 1007199
03:00−16nw359878 0.0 1009105
06:00−17nw379895 0.0 1011138
09:00−15nnw359492 0.1 1013253
12:00−12nw358898 0.1 1014489
15:00−11nw458699 0.1 1015649
18:00−15nw3893100 0.1 1016305
21:00−19nw369894 0.1 1019163
10 march, wed
wed1000:00−21nw379890 0.0 1020169
03:00−23nnw379882 0.1 1021161
06:00−25nnw379846 0.0 1023134
09:00−23nnw369326 0.0 1025258
12:00−18nnw358426 0.0 1026513
15:00−16nnw357924 0.0 1026727
18:00−19nw239240 0.0 102647
21:00−22wnw239220 0.0 102752
11 march, thu
thu1100:00−22w23930 0.0 102757
03:00−23w35950 0.0 102887
06:00−23w36950 0.0 102897
09:00−18w36871 0.0 1029213
12:00−12wsw34820 0.0 1028338
15:00−9sw35750 0.0 1027526
18:00−13s35890 0.0 1026106
21:00−14ssw4109624 0.0 1026291